Location: *
(39.8000°S, 80.3177°E)
Time: 06:20:53
(UTC+00:00)

Daily predictions for brighter satellites

Satellite Brightness Start Highest point End
(mag) Time Altitude Azimuth Time Altitude Azimuth Time Altitude Azimuth
Cosmos 676 Rocket 4.3 12:38:18 10° S 12:43:35 52° ESE 12:48:48 10° NE
Cosmos 1726 2.3 12:44:15 10° S 12:47:58 49° E 12:51:37 10° NNE
Cosmos 1452 Rocket 3.9 12:44:41 10° N 12:49:43 45° ENE 12:54:47 10° SSE
STARLINK-1183 3.1 12:46:50 10° NW 12:49:59 75° SW 12:53:12 10° SE
Cosmos 1242 Rocket 2.6 12:46:31 10° N 12:50:11 84° E 12:53:57 10° S
STARLINK-1181 3.1 12:47:18 10° NW 12:50:27 74° SW 12:53:40 10° SE
STARLINK-1196 3.1 12:47:44 10° NW 12:50:53 73° SW 12:54:05 10° SE
STARLINK-1186 3.1 12:48:11 10° NW 12:51:22 72° SW 12:54:33 10° SE
STARLINK-1185 3.1 12:48:37 10° NW 12:51:46 72° SW 12:54:58 10° SE
CZ-4 R/B 3.1 12:49:45 10° ESE 12:51:47 13° E 12:53:46 10° ENE
STARLINK-1175 3.1 12:49:06 10° NW 12:52:15 71° SW 12:55:27 10° SE
Aureole 3 2.6 12:49:26 10° S 12:52:30 90° N 12:55:39 10° N
STARLINK-1147 3.2 12:49:31 10° WNW 12:52:40 70° SW 12:55:53 10° SE
STARLINK-1170 3.6 12:49:04 10° NW 12:52:47 72° SW 12:56:33 10° SE
Cosmos 1470 4.4 12:49:22 10° SSW 12:53:05 40° W 12:56:44 10° NNW
Cosmos 1844 Rocket 3.6 12:47:39 10° NW 12:53:07 54° WSW 12:58:38 10° SSE
STARLINK-1146 3.2 12:49:58 10° WNW 12:53:08 69° SW 12:56:19 10° SE
STARLINK-1152 3.2 12:50:26 10° WNW 12:53:36 69° SW 12:56:47 10° SE
STARLINK-1195 3.2 12:50:54 10° WNW 12:54:04 68° SW 12:57:15 10° SE
STARLINK-1137 3.2 12:51:22 10° WNW 12:54:30 67° SW 12:57:42 10° SE
FALCON 9 R/B 3.8 12:44:44 10° NW 12:54:45 28° N 12:58:53 10° ENE
STARLINK-1142 3.2 12:51:48 10° WNW 12:54:57 66° SW 12:58:08 10° SE
STARLINK-1127 3.2 12:52:15 10° WNW 12:55:24 66° SW 12:58:36 10° SE
STARLINK-1184 3.3 12:52:42 10° WNW 12:55:51 65° SW 12:59:01 10° SE
STARLINK-1193 3.3 12:53:10 10° WNW 12:56:20 64° SW 12:59:31 10° SE
STARLINK-1194 3.3 12:53:36 10° WNW 12:56:45 63° SW 12:59:56 10° SE
Cosmos 1707 4.2 12:53:08 10° NNW 12:56:54 42° W 13:00:42 10° S
Cosmos 1953 2.4 12:53:16 10° S 12:57:21 86° W 13:01:21 10° N
STARLINK-41 3.4 12:54:28 10° SW 12:57:38 62° NW 13:00:46 10° NE
STARLINK-1151 3.5 12:56:31 10° WNW 12:59:57 66° SW 13:03:25 10° SE
Okean O Rocket 2.6 12:55:42 10° S 13:00:02 52° WSW 13:04:18 10° NNW
STARLINK-1133 3.5 12:58:05 10° WNW 13:01:32 64° SW 13:05:00 10° SE
STARLINK-71 4.5 12:58:25 10° SW 13:02:11 33° SSE 13:05:23 13° E
Envisat 3.0 12:57:29 10° SSE 13:02:37 65° E 13:07:41 10° N
STARLINK-1139 3.6 12:59:41 10° WNW 13:03:07 61° SW 13:06:35 10° SE
STARLINK-1132 3.8 12:59:54 10° WNW 13:03:28 58° SW 13:07:04 10° SE
STARLINK-1174 3.6 13:01:17 10° WNW 13:04:42 59° SW 13:08:10 10° SE
STARLINK-42 4.3 13:02:02 10° WSW 13:05:09 41° NW 13:08:15 10° NNE
Cosmos 1954 Rocket 4.0 13:00:49 10° SSW 13:06:14 79° ESE 13:11:34 10° NNE
STARLINK-1177 3.9 13:03:06 10° WNW 13:06:39 54° SW 13:10:14 10° SE
YAOGAN 1 4.0 13:04:08 10° SE 13:06:57 17° E 13:09:45 10° NE
STARLINK-57 4.4 13:03:16 10° SW 13:07:03 34° SSE 13:10:00 15° E
Cosmos 1271 Rocket 3.2 13:03:24 10° NNW 13:07:15 68° W 13:11:15 10° S
STARLINK-1180 3.8 13:04:36 10° WNW 13:08:01 55° SW 13:11:29 10° SE
STARLINK-49 4.5 13:04:50 10° SW 13:08:36 34° SSE 13:11:26 15° E
AQUARIUS 4.2 13:04:37 10° SSE 13:09:13 90° W 13:13:45 10° NNW
STARLINK-1167 4.0 13:05:52 10° WNW 13:09:23 51° SW 13:12:57 10° SE
STARLINK-1153 3.8 13:06:09 10° WNW 13:09:33 53° SW 13:12:59 10° SE
STARLINK-27 4.4 13:06:28 10° SW 13:10:15 35° SSE 13:13:01 16° E
STARLINK-1026 4.5 13:07:56 10° SW 13:11:51 36° SSE 13:14:40 17° E
STARLINK-74 4.4 13:08:07 10° SW 13:11:56 35° SSE 13:14:37 17° E
Okean 1-7 Rocket 4.0 13:08:31 10° NNE 13:12:46 43° E 13:17:06 10° SSE
Meteor 2-14 Rocket 4.5 13:06:38 10° N 13:12:47 85° E 13:19:02 10° S
STARLINK-1149 4.2 13:09:21 10° WNW 13:12:59 48° SW 13:16:37 10° SE
Helios 1A Rocket 3.4 13:09:03 10° S 13:13:16 68° WSW 13:17:23 10° NNW
STARLINK-39 4.3 13:09:45 10° SW 13:13:35 36° SSE 13:16:12 17° E
STARLINK-31 4.3 13:11:26 10° SW 13:15:17 37° SSE 13:17:50 18° E
Meteor 1-24 Rocket 4.0 13:10:49 10° NNE 13:15:51 40° E 13:21:06 10° SSE
CZ-4B R/B 4.4 13:10:44 10° S 13:15:56 45° WSW 13:21:01 10° NW
STARLINK-1013 4.3 13:12:53 10° SW 13:16:51 38° SSE 13:19:26 19° E
STARLINK-69 4.2 13:13:14 10° SW 13:17:09 41° SSE 13:19:41 19° E
STARLINK-64 3.4 13:14:24 10° SW 13:18:05 78° NW 13:21:27 12° NE
STARLINK-21 4.2 13:14:42 10° SW 13:18:36 40° SSE 13:21:01 20° E
STARLINK-1163 4.3 13:16:06 10° WNW 13:19:34 42° SW 13:23:03 10° SE
STARLINK-45 4.1 13:16:32 10° SW 13:20:29 44° SSE 13:22:53 21° E
Meteor 1-16 Rocket 4.4 13:15:07 10° SSW 13:20:33 74° W 13:25:51 10° N
STARLINK-1007 4.3 13:16:47 10° SW 13:20:51 42° SSE 13:23:20 21° E
Nadezhda 1 Rocket 4.1 13:14:40 10° S 13:20:58 58° E 13:27:15 10° NNE
STARLINK-1168 4.2 13:17:45 10° WNW 13:21:06 42° SSW 13:24:21 11° SE
USA 229 DEB 4.1 13:14:19 10° N 13:21:40 52° ENE 13:28:48 10° SE
USA 229 4.1 13:14:26 10° N 13:21:47 51° ENE 13:28:55 10° SE
STARLINK-1009 4.2 13:17:51 10° SW 13:21:52 41° SSE 13:24:14 21° E
CZ-2C R/B 3.3 13:17:03 10° NE 13:21:55 34° ESE 13:26:55 10° S
Cosmos 1745 Rocket 3.9 13:15:57 10° N 13:22:02 67° E 13:28:12 10° SSE
STARLINK-70 4.1 13:18:07 10° SW 13:22:04 44° SSE 13:24:23 21° E
NOAA 12 4.1 13:17:13 10° SSE 13:22:40 87° ENE 13:28:02 10° NNW
Cosmos 2292 4.3 13:19:39 10° S 13:22:46 64° E 13:26:23 10° NNE
STARLINK-1164 4.3 13:19:32 10° WNW 13:22:51 41° SW 13:26:02 11° SE
STARLINK-76 4.1 13:19:41 10° SW 13:23:37 43° SSE 13:25:49 22° E
Lacrosse 4 Rocket 3.2 13:20:08 10° WNW 13:23:51 31° WSW 13:27:34 10° S
STARLINK-1182 4.4 13:21:21 10° WNW 13:24:40 39° SSW 13:27:47 11° SE
Cosmos 2058 Rocket 3.4 13:20:23 10° S 13:24:43 43° ESE 13:29:01 10° NNE
KORONAS-FOTON 3.8 13:21:07 10° N 13:24:57 89° W 13:28:53 10° S
STARLINK-23 4.0 13:21:19 10° SW 13:25:17 44° SSE 13:27:25 23° E
STARLINK-1015 4.1 13:22:46 10° SW 13:26:50 44° SSE 13:28:59 24° E
STARLINK-32 4.0 13:22:56 10° SW 13:26:55 46° SE 13:28:59 24° E
Cosmos 44 3.8 13:23:12 10° SSW 13:28:12 44° SE 13:31:17 20° ENE
STARLINK-40 4.0 13:24:35 10° SW 13:28:34 47° SE 13:30:34 25° E
STARLINK-1172 4.5 13:25:20 10° WNW 13:28:38 37° SSW 13:31:36 12° SE
STARLINK-44 3.9 13:26:14 10° SW 13:30:14 48° SE 13:32:10 26° E
Cosmos 1726 Rocket 3.4 13:26:26 10° S 13:30:51 81° E 13:35:13 10° N
NOSS 3-1 (A) 4.5 13:23:06 10° N 13:31:19 44° ENE 13:38:49 10° SE
Cosmos 2082 Rocket 3.2 13:27:06 10° S 13:31:47 26° SE 13:33:31 22° E
STARLINK-1016 4.0 13:27:45 10° SW 13:31:52 48° SE 13:33:48 27° E
STARLINK-37 3.8 13:28:00 10° SW 13:32:02 53° SE 13:33:57 27° E
Meteor 2-16 Rocket 4.4 13:26:43 10° N 13:32:52 87° E 13:39:04 10° S
SL-23 DEB 3.7 13:29:53 10° SW 13:32:59 47° SSE 13:34:10 31° E
STARLINK-36 3.8 13:29:33 10° SW 13:33:34 51° SE 13:35:21 29° E
STARLINK-1129 3.7 13:29:58 10° NW 13:34:04 58° NE 13:36:17 25° ESE
STARLINK-68 3.7 13:31:22 10° SW 13:35:26 57° SE 13:37:14 30° ENE
STARLINK-1008 3.9 13:32:44 10° SW 13:36:52 52° SE 13:38:36 31° E
STARLINK-63 3.7 13:32:55 10° SW 13:36:59 57° SE 13:38:40 31° E
SMAP 4.5 13:33:23 10° S 13:37:50 41° WSW 13:42:13 10° NW
STARLINK-35 3.7 13:34:30 10° SW 13:38:32 56° SE 13:40:07 33° E
STARLINK-1134 3.6 13:34:56 10° NW 13:39:04 64° NE 13:41:07 28° ESE
USA 81 4.1 13:34:08 10° N 13:39:27 82° W 13:44:50 10° S
STARLINK-51 3.7 13:36:08 10° SW 13:40:12 58° SE 13:41:43 34° E
Meteor 2-5 Rocket 3.7 13:35:00 10° N 13:40:37 87° W 13:46:26 10° S
Cosmos 1833 Rocket 3.0 13:36:00 10° SSW 13:41:30 46° ESE 13:44:40 23° ENE
STARLINK-30 3.7 13:37:46 10° SW 13:41:51 59° SE 13:43:17 36° E
STARLINK-72 3.6 13:39:28 10° SW 13:43:32 62° SE 13:44:55 37° ENE
Cosmos 1607 4.0 13:37:22 10° SSW 13:43:33 59° SE 13:47:27 22° NE
BREEZE-M DEB (TANK) 4.1 13:41:27 10° NNW 13:43:03 18° NNE 13:43:03 18° NNE
STARLINK-1135 3.5 13:39:52 10° NW 13:44:02 71° NE 13:45:54 32° ESE
STARLINK-50 3.6 13:41:05 10° SW 13:45:10 64° SE 13:46:29 39° ENE
Okean-O 2.6 13:42:02 10° SSE 13:46:33 90° SW 13:51:01 10° NNW
Cosmos 2228 3.8 13:42:20 10° SSW 13:46:33 54° W 13:50:43 10° N
STARLINK-1025 3.7 13:42:39 10° SW 13:46:51 62° SE 13:48:10 40° E
STARLINK-59 3.5 13:42:50 10° SW 13:46:56 69° SE 13:48:14 41° ENE
STARLINK-1162 3.5 13:42:46 10° NW 13:46:58 76° NE 13:48:46 33° ESE
Shenzhou-11 Module 2.5 13:45:17 10° WSW 13:47:47 39° S 13:47:47 39° S
STARLINK-56 3.5 13:44:23 10° SW 13:48:29 67° SE 13:49:40 43° ENE
STARLINK-58 4.4 13:45:50 10° WSW 13:48:50 34° NW 13:50:29 20° N
STARLINK-1141 3.5 13:44:49 10° NW 13:48:59 78° NE 13:50:40 35° ESE
CZ-2C R/B 3.7 13:45:21 10° NNE 13:49:50 83° WNW 13:54:21 10° SSW
STARLINK-73 3.5 13:46:02 10° SW 13:50:09 70° SE 13:51:16 45° ENE
STARLINK-38 3.5 13:47:41 10° SW 13:51:48 72° SE 13:52:52 47° ENE
Cosmos 371 Rocket 3.7 13:46:56 10° NNW 13:51:49 64° WSW 13:56:45 10° SSE
STARLINK-1017 3.6 13:47:37 10° SW 13:51:50 68° SE 13:52:56 46° ENE
STARLINK-1157 3.5 13:47:42 10° NW 13:51:55 84° NE 13:53:32 37° SE
Lacrosse 5 rocket 1.4 13:48:32 10° SW 13:52:37 53° SE 13:53:12 47° ESE
STARLINK-65 3.5 13:49:21 10° SW 13:53:28 74° SE 13:54:27 49° ENE
STARLINK-1140 3.5 13:49:45 10° NW 13:53:56 85° NE 13:55:26 39° SE
DNEPR-1 R/B 4.5 13:48:33 10° SSW 13:54:21 68° ESE 13:58:46 24° NE
COSMOS 2406 3.3 13:49:01 10° SSW 13:54:46 82° WNW 14:00:26 10° NNE
Cosmos 1300 3.0 13:51:12 10° S 13:54:37 46° ESE 13:54:37 46° ESE
STARLINK-53 3.4 13:51:04 10° SW 13:55:12 80° SE 13:56:10 51° ENE
STARLINK-1014 3.4 13:51:27 10° SW 13:55:28 71° SE 13:56:11 55° E
Cosmos 1626 Rocket 3.6 13:52:25 10° NNE 13:56:37 50° E 14:00:55 10° SSE
STARLINK-1159 3.6 13:52:40 10° NW 13:56:54 89° SSW 13:58:19 41° SE
Cosmos 1850 Rocket 4.0 13:51:42 10° SSW 13:57:06 89° E 14:02:02 12° NNE
CSL-04 Rocket 3.9 13:52:23 10° SSE 13:57:41 45° E 14:02:50 10° N
NOSS 3-1 (C) 4.1 13:49:22 10° NNW 13:58:13 88° ENE 14:06:08 10° SE
STARLINK-1156 3.6 13:54:44 10° NW 13:58:55 87° SW 14:00:13 44° SE
Lacrosse 5 3.5 13:55:14 10° W 13:59:48 31° SW 14:04:22 10° SSE
MOS 1 Rocket 3.3 13:54:49 11° NNE 13:59:49 68° ESE 14:04:42 10° S
STARLINK-1171 3.6 13:57:40 10° NW 14:01:54 82° SW 14:03:08 45° SE
Cosmos 2278 Rocket 2.5 13:58:03 10° NNW 14:03:42 67° WSW 14:09:25 10° SSE
STARLINK-1148 3.6 13:59:43 10° NW 14:03:55 80° SW 14:05:01 48° SE
STARLINK-24 3.5 14:01:10 10° SW 14:05:16 84° NW 14:05:51 64° NE
Cosmos 1626 2.2 14:02:26 10° NNW 14:06:10 75° W 14:09:58 10° S
STARLINK-1048 3.5 14:02:31 10° SW 14:06:46 89° SE 14:07:16 68° NE
STARLINK-1155 3.7 14:02:40 10° NW 14:06:53 75° SW 14:07:55 49° SSE
Cosmos 1340 Rocket 4.1 14:03:13 10° SSW 14:07:09 42° W 14:11:02 10° NNW
STARLINK-1029 4.4 14:05:17 10° WSW 14:08:12 31° NW 14:08:38 30° NNW
STARLINK-1158 3.7 14:04:43 10° NW 14:08:53 73° SW 14:09:47 52° SSE
STARLINK-1049 3.5 14:07:30 10° SW 14:11:45 84° NW 14:12:04 75° NNE
STARLINK-1166 3.9 14:07:39 10° WNW 14:11:51 68° SW 14:12:41 52° SSE
Cosmos 1331 Rocket 3.9 14:08:31 10° NNW 14:13:45 87° ENE 14:19:07 10° SSE
STARLINK-1051 3.6 14:12:31 10° SW 14:16:45 76° NW 14:16:52 75° NNW
STARLINK-1165 4.0 14:12:41 10° WNW 14:16:52 62° SW 14:17:31 54° S
SL-14 R/B 4.0 14:13:21 10° NNW 14:17:10 53° W 14:21:02 10° S
Cosmos 1709 Rocket 4.0 14:12:04 10° N 14:18:14 82° W 14:24:32 10° S
Meteor 2-1 Rocket 4.4 14:13:34 10° S 14:18:44 49° ESE 14:18:44 49° ESE
STARLINK-1010 4.1 14:16:59 10° WSW 14:21:12 56° NW 14:21:32 55° NNW
STARLINK-1169 4.1 14:17:41 10° WNW 14:21:50 57° SW 14:22:16 54° S
H-II Stage 2 4.4 14:18:30 10° NW 14:22:24 31° NNE 14:24:37 28° NE
STARLINK-1028 4.0 14:22:29 10° SW 14:26:25 61° WNW 14:26:25 61° WNW
STARLINK-1178 4.2 14:22:42 10° WNW 14:26:50 52° SW 14:27:04 52° SSW
CZ-4 R/B 2.5 14:23:07 10° S 14:27:03 44° WSW 14:30:51 10° NW
Cosmos 1939 Rocket 3.6 14:23:16 10° S 14:27:22 54° WSW 14:31:22 10° NNW
STARLINK-1021 4.3 14:27:30 10° WSW 14:31:13 53° WNW 14:31:13 53° WNW
STARLINK-1120 4.4 14:27:45 10° WNW 14:31:51 48° SW 14:31:52 48° SSW
USA 215 4.4 14:35:47 27° N 14:35:47 27° N 14:39:07 10° NNW
IRIDIUM 104 4.4 14:40:49 49° NNW 14:42:13 76° W 14:47:32 10° S
YAOGAN 1 3.8 14:39:04 10° S 14:43:13 41° WSW 14:47:19 10° NW
CZ-2C R/B 4.3 14:57:23 10° NNW 15:02:09 31° W 15:07:04 10° SSW
Exosat Rocket 4.4 15:05:14 10° SSW 15:10:49 62° WNW 15:11:13 61° NW
Cosmos 2082 Rocket 3.1 15:10:40 10° SW 15:15:25 44° W 15:15:25 44° W
CZ-4C R/B 4.4 21:05:08 29° SSE 21:05:08 29° SSE 21:08:10 10° SSE
Cosmos 2219 Rocket 4.0 21:38:49 27° ESE 21:38:49 27° ESE 21:42:01 10° SE
COSMOS 2428 3.7 22:02:55 45° ESE 22:02:55 45° ESE 22:07:19 10° SSE
Cosmos 2279 Rocket 4.4 22:10:17 55° ENE 22:11:00 59° E 22:17:13 10° SSE
H-2A R/B 4.1 22:09:08 10° SSE 22:11:21 26° SE 22:11:21 26° SE
Cosmos 2360 Rocket 3.9 22:26:01 22° S 22:26:01 22° S 22:28:19 10° S
Cosmos 2322 Rocket 4.5 22:31:56 12° SSW 22:31:56 12° SSW 22:32:42 10° S
NOSS 0 Rocket 4.5 22:36:24 29° N 22:39:29 55° ENE 22:45:35 10° SSE
Meteor 2-13 Rocket 4.3 22:35:33 10° S 22:41:43 75° W 22:47:47 10° N
Cosmos 2333 Rocket 2.4 22:42:30 59° SSW 22:42:30 59° SSW 22:47:35 10° SSE
Cosmos 2056 Rocket 4.1 22:45:17 45° N 22:45:17 45° N 22:48:59 10° NNE
Cosmos 2180 Rocket 4.5 22:42:09 29° N 22:45:44 87° E 22:52:15 10° S
Cosmos 2237 Rocket 3.1 22:41:52 17° N 22:45:57 46° ENE 22:51:25 10° SE
USA 229 DEB 3.5 22:43:31 36° SW 22:46:35 85° WNW 22:53:05 10° NNE
USA 229 3.5 22:43:32 34° SW 22:46:42 86° WNW 22:53:12 10° NNE
Landsat 5 4.3 22:44:35 10° SSE 22:47:37 45° SSE 22:47:37 45° SSE
SL-16 R/B 4.2 22:44:52 10° SSW 22:47:06 18° SSW 22:47:06 18° SSW
STARLINK-1100 4.3 22:50:03 53° SE 22:50:03 53° SE 22:54:00 10° ENE
CZ-4C R/B 4.0 22:50:21 24° SW 22:50:21 24° SW 22:55:49 10° SSE
STARLINK-1083 4.1 22:54:47 58° SSE 22:54:50 58° SE 22:58:58 10° ENE
ALOS 2.2 22:51:13 10° NNE 22:55:55 85° ESE 23:00:41 10° S
NOSS 3-1 (A) 3.4 22:51:32 18° SSW 22:56:15 75° SE 23:01:41 10° NE
Cosmos 2278 Rocket 3.0 22:53:06 10° SSW 22:58:40 51° ESE 23:04:10 10° NE
CZ-4B R/B 3.0 22:55:46 10° SSE 22:58:55 35° E 23:00:26 23° NNE
STARLINK-1125 3.9 22:59:34 61° SSE 22:59:49 63° SE 23:03:59 10° ENE
SAR-Lupe-4 4.3 22:58:16 10° SSE 23:01:00 47° SSE 23:01:00 47° SSE
ATLAS 3B CENTAUR R/B 4.2 23:00:15 24° NNW 23:02:28 26° N 23:12:43 10° NE
USA 215 3.4 22:57:13 10° ENE 23:03:46 72° SE 23:09:16 16° SW
STARLINK-1109 3.8 23:04:21 62° S 23:04:49 69° SE 23:09:00 10° ENE
STARLINK-1091 3.7 23:09:09 60° SSW 23:09:48 75° SE 23:13:59 10° NE
Meteor 2-9 Rocket 4.1 23:09:33 32° NNW 23:12:11 65° W 23:17:43 10° S
MOS 1-B 4.3 23:07:21 10° NNE 23:13:09 89° ESE 23:19:02 10° SSW
Cosmos 2292 Rocket 4.3 23:09:37 10° S 23:14:11 71° E 23:20:17 10° NNE
STARLINK-1072 3.6 23:13:59 56° SW 23:14:49 83° SE 23:19:01 10° NE
Abrixas rocket 3.7 23:16:09 26° SSE 23:16:09 26° SSE 23:18:01 10° SE
NOSS 2-3 (C) 4.2 23:08:40 10° SW 23:15:28 88° SE 23:20:37 10° NNE
Cosmos 1452 Rocket 3.7 23:13:33 10° SSW 23:18:54 75° ESE 23:24:10 10° NNE
SAR-Lupe-1 4.0 23:15:39 10° S 23:19:07 66° SW 23:19:07 66° SW
STARLINK-1096 3.5 23:18:41 51° SW 23:19:42 89° NW 23:23:53 10° NE
Cosmos 2266 Rocket 4.0 23:13:32 10° S 23:19:49 90° E 23:26:07 10° N
CZ-4B R/B 4.5 23:15:55 10° N 23:20:17 74° WNW 23:24:44 10° SSW
Cosmos 2219 Rocket 2.9 23:20:34 33° WSW 23:20:52 33° WSW 23:25:59 10° S
NOAA 6 4.3 23:16:59 10° NNE 23:22:08 70° ESE 23:27:22 10° S
NOSS 3-1 (C) 3.5 23:21:29 37° W 23:22:44 42° WNW 23:27:45 10° N
STARLINK-1079 3.5 23:23:32 45° WSW 23:24:45 82° NW 23:28:56 10° NE
STARLINK-1116 3.5 23:28:21 40° WSW 23:29:45 74° NW 23:33:55 10° NE
Cosmos 468 4.4 23:26:02 10° NNW 23:31:20 82° WSW 23:36:41 10° SSE
Cosmos 1689 Rocket 3.2 23:28:40 10° SSE 23:31:40 46° E 23:34:37 10° N
Cosmos 1300 Rocket 3.7 23:30:15 21° NNW 23:33:00 53° W 23:37:25 10° S
METEOR-M 4.4 23:30:09 10° N 23:35:14 43° W 23:40:24 10° SSW
CRYOSAT 2 4.3 23:30:40 10° N 23:35:34 71° W 23:40:33 10° S
Cosmos 972 Rocket 4.3 23:29:12 10° SSW 23:35:36 64° WNW 23:41:13 10° N
STARLINK-1094 3.7 23:37:52 32° WSW 23:39:39 61° NW 23:43:46 10° NE
CZ-3 R/B 3.7 23:27:06 22° W 23:44:09 48° NNW 23:52:04 10° NE
Cosmos 1655 Rocket 4.4 23:38:19 10° SSW 23:44:19 41° W 23:50:15 10° NNW
STARLINK-1117 3.8 23:42:41 28° WSW 23:44:39 55° NW 23:48:43 10° NNE
ISS -2.0 23:42:26 14° SSW 23:44:51 28° SSE 23:47:53 10° E
COSMOS 2428 3.8 23:44:58 22° WSW 23:46:19 24° SW 23:50:55 10° S
Okean 2 Rocket 3.9 23:45:28 24° WNW 23:47:06 31° WSW 23:51:10 10° SSW
PAYLOAD B 4.3 23:42:32 10° N 23:48:02 58° WNW 23:53:38 10° SSW
Cosmos 2151 Rocket 3.9 23:44:19 10° NNW 23:48:35 43° WSW 23:52:58 10° S
Cosmos 1980 3.9 23:44:06 14° NW 23:48:50 50° WSW 23:54:23 10° SSE
H-2A R/B 3.8 23:46:10 10° SSW 23:48:26 17° SW 23:48:26 17° SW
STARLINK-1078 3.9 23:47:28 25° WSW 23:49:36 49° NW 23:53:38 10° NNE
FENGYUN 3A 4.4 23:45:04 10° NNW 23:49:45 30° W 23:54:31 10° SW
STARLINK-1108 4.0 23:52:16 22° WSW 23:54:34 44° NW 23:58:33 10° NNE
Okean O Rocket 1.6 23:50:48 10° N 23:55:16 67° WNW 23:59:47 10° SSW
SJ-7 4.4 23:51:34 10° N 23:55:40 64° W 23:59:53 10° SSW
